Wind_Speed
64 69 73 77 81 85 87 88 89 88 88 90 91 92 82 70 66 67 68 57 51 47 46 44 44 45 46 48 49 50 51 53 52 47 43 40 45 46 46 46 46 58 71
69 73 77 82 86 88 90 90 90 92 93 91 85 72 68 59 63 70 76 48 44 42 42 44 46 47 49 52 54 54 54 54 55 52 50 45 44 48 46 46 49 47 53
73 78 82 86 88 92 93 95 94 94 91 63 64 69 60 63 62 74 54 47 46 46 46 48 51 53 54 55 54 53 53 53 53 53 52 50 47 45 49 48 45 50 44
77 81 84 88 93 96 97 95 95 88 79 69 61 57 56 57 68 59 48 48 47 49 53 55 55 54 52 51 51 49 48 46 46 49 50 51 49 48 48 50 50 49 53
79 84 89 93 95 96 97 95 90 79 72 64 51 53 54 58 57 48 48 49 51 54 54 52 51 49 49 50 49 46 43 42 41 41 42 48 48 48 50 48 49 48 55
84 89 92 93 94 95 94 88 79 69 59 39 40 47 46 46 45 46 48 51 52 52 49 48 48 50 50 50 49 47 43 41 39 36 37 41 44 45 47 49 46 48 48
87 89 91 92 93 91 88 76 61 51 41 31 42 47 45 43 43 46 51 50 50 47 47 45 39 40 41 39 38 38 38 39 39 36 32 34 40 41 43 45 47 47 46
87 89 90 90 90 87 71 54 41 31 24 27 32 35 39 41 44 48 47 48 44 43 35 35 36 36 36 34 31 30 30 31 33 33 32 32 34 37 39 41 44 42 42
88 88 89 90 87 71 51 36 27 27 26 29 32 37 39 41 46 44 44 41 39 31 35 38 38 36 33 31 27 23 26 29 30 31 31 30 30 31 34 35 38 39 38
86 87 89 86 71 53 39 28 28 29 30 33 36 37 38 42 45 41 42 36 28 30 36 37 37 34 30 26 24 20 17 19 22 24 23 24 25 26 27 28 32 33 37
86 87 85 71 54 43 30 28 30 29 31 35 37 38 40 44 43 40 39 31 25 30 32 32 32 31 29 25 19 17 13 11 11 13 14 17 19 22 21 22 25 29 32
85 84 73 57 44 36 28 29 30 30 32 36 39 39 40 44 41 39 36 28 25 28 29 28 29 29 28 25 18 14 12 6 5 8 11 15 16 15 15 17 19 22 23
82 76 62 48 38 31 28 30 30 30 33 36 38 38 39 43 39 36 36 28 23 25 26 25 26 27 27 27 21 15 12 7 5 9 12 14 14 14 14 14 15 17 18
74 65 52 40 33 29 29 31 30 29 32 35 37 38 39 40 38 34 33 29 22 23 24 23 23 24 24 24 23 17 12 8 7 10 13 14 14 12 11 11 11 11 10
65 56 44 36 31 28 29 30 30 29 30 33 35 36 38 39 39 32 32 28 22 20 21 20 19 20 21 22 20 17 12 6 5 7 10 11 12 13 14 14 11 10 7
57 48 39 34 31 28 28 29 30 30 30 31 34 35 37 38 38 32 30 28 24 19 18 18 18 17 16 16 17 13 10 9 7 8 10 12 13 12 11 10 9 8 6
50 43 36 31 30 28 28 30 32 31 29 30 33 33 36 38 37 31 27 26 24 20 17 16 16 15 14 12 11 11 7 6 5 2 5 8 8 8 8 7 6 5 4
44 39 33 30 28 27 27 27 29 28 28 30 32 32 35 37 36 32 25 25 24 22 18 17 16 15 14 12 10 8 6 4 2 2 3 4 5 7 7 7 7 6 5
41 36 31 28 26 26 26 27 27 26 26 28 29 31 34 37 36 32 26 22 23 22 21 19 18 17 15 14 12 9 7 6 6 7 7 9 8 8 8 9 8 7 6
39 35 29 27 26 26 26 26 26 25 26 26 27 30 33 35 35 32 28 23 22 23 23 21 19 20 20 18 15 12 10 10 10 10 12 12 13 13 13 12 12 11 10
37 34 29 28 27 26 25 24 24 24 25 24 26 28 30 33 34 32 29 26 24 24 25 23 21 20 21 22 21 19 16 13 11 12 14 15 15 16 17 17 16 16 15
34 32 28 26 24 23 22 22 23 24 23 23 24 26 28 30 32 33 30 28 26 24 24 24 23 21 20 23 23 25 23 21 18 15 13 14 16 18 18 19 20 19 18
31 29 27 24 22 22 22 22 22 23 22 22 24 25 26 27 29 32 32 30 27 26 25 25 24 22 20 20 23 24 26 27 26 24 21 19 17 16 17 18 19 20 20
29 27 26 24 22 21 21 23 24 23 22 23 23 25 26 26 28 30 32 33 30 28 26 25 25 25 22 20 20 21 23 26 29 29 28 27 25 23 22 21 21 21 21
28 27 27 26 25 25 24 25 25 24 23 23 24 25 26 27 28 29 31 32 32 31 29 27 25 25 24 22 21 21 21 23 25 29 31 31 31 30 28 28 27 26 26
26 26 27 27 27 27 26 26 26 26 24 24 26 26 27 27 28 30 31 32 33 33 32 29 27 26 26 25 23 22 22 22 23 25 27 30 31 32 32 32 32 31 31
Wind_Direction
313 311 311 311 310 310 311 311 311 308 309 309 310 309 309 310 307 312 315 309 303 296 291 288 285 283 281 278 277 275 274 273 272 270 264 257 254 254 252 247 240 237 235
311 311 312 312 312 312 313 313 313 313 313 313 310 307 310 307 306 313 315 307 303 298 293 289 287 284 283 281 280 278 275 272 269 267 264 257 251 248 249 244 240 237 236
312 314 314 313 313 315 315 315 315 314 313 310 298 300 307 299 302 309 308 303 300 299 297 294 291 289 288 285 282 278 274 272 270 266 262 258 250 246 244 244 240 232 231
315 313 313 314 317 317 317 316 315 313 309 306 302 298 296 292 301 308 304 302 302 302 301 300 298 295 290 285 281 279 276 272 268 265 261 257 249 244 242 241 239 238 232
315 316 317 319 318 317 316 316 314 310 306 304 297 296 288 292 304 303 305 306 307 306 304 302 299 296 291 287 283 278 276 271 266 264 260 255 252 244 240 240 238 238 236
319 318 318 318 317 317 317 315 311 308 306 302 297 306 306 306 305 307 308 310 309 310 308 306 304 301 296 289 284 280 272 265 262 262 261 254 248 245 239 236 237 236 236
318 318 318 318 319 317 316 314 314 313 310 284 281 300 307 307 311 313 313 313 317 315 313 314 320 318 311 297 287 280 273 266 260 253 259 258 244 240 237 233 234 234 234
317 318 319 319 317 317 318 319 322 327 331 314 309 309 309 315 317 317 317 321 319 319 325 325 324 322 321 317 295 282 273 264 259 251 254 256 242 235 234 232 233 234 233
319 320 319 320 319 320 321 322 322 321 323 323 320 321 321 320 320 320 323 323 324 323 324 326 326 324 322 322 318 296 275 265 259 254 254 250 236 229 229 230 230 231 229
319 319 320 320 320 321 321 317 319 319 321 323 322 323 324 324 325 324 328 328 325 325 329 331 331 332 329 324 322 319 295 274 260 251 244 237 227 223 222 226 226 225 228
320 320 321 320 320 319 317 317 317 316 317 321 324 326 328 329 329 327 332 331 327 331 335 337 341 344 343 338 327 321 316 283 260 245 235 223 212 210 214 215 220 225 231
320 321 321 319 317 316 313 315 313 312 314 321 325 327 331 333 331 330 332 331 328 335 340 343 349 352 355 354 348 341 333 316 241 212 197 190 193 197 198 206 216 224 231
320 321 320 316 314 313 310 313 312 311 313 318 324 328 331 334 333 331 333 331 328 335 341 345 350 355 1 6 8 8 13 26 106 139 148 155 163 171 179 190 206 218 225
321 321 319 313 311 309 308 311 309 309 312 318 324 327 331 334 335 332 332 329 324 332 338 345 349 355 3 10 18 23 28 49 97 125 137 147 159 176 186 182 170 159 158
322 321 316 310 308 305 307 310 310 309 312 317 323 326 331 335 336 330 332 331 323 319 329 339 344 351 360 7 15 30 34 45 101 128 140 143 141 142 145 142 139 140 148
321 319 314 309 307 303 303 307 310 310 313 317 323 326 330 335 336 329 330 331 323 310 315 328 338 344 348 358 7 18 40 51 77 108 121 128 135 140 141 145 151 156 159
319 316 312 310 306 303 301 305 308 312 314 317 322 325 331 334 335 330 325 329 327 316 303 309 322 331 338 344 352 3 15 35 28 58 139 148 153 157 161 167 171 184 184
320 315 312 312 307 304 302 304 307 309 311 316 320 324 330 334 336 334 321 324 329 326 310 294 296 309 320 325 326 326 336 330 315 301 233 207 196 197 197 198 202 213 222
319 314 310 312 310 307 307 307 308 307 309 314 318 324 331 335 338 335 327 315 324 330 324 304 286 281 289 300 307 303 290 281 267 251 247 241 237 232 234 234 234 236 244
317 313 306 307 308 306 307 308 308 307 310 314 318 325 332 337 338 338 333 322 315 322 326 322 297 280 270 272 277 285 286 275 262 254 247 244 246 249 250 250 253 259 260
314 313 308 301 304 306 307 308 306 307 311 312 318 325 333 338 339 340 337 331 323 317 320 323 318 293 276 265 261 263 267 268 267 260 252 248 249 249 252 250 251 254 259
311 313 312 306 303 304 306 307 305 307 308 310 317 324 331 337 342 344 341 333 326 320 319 321 322 314 290 273 264 255 255 259 260 259 256 253 249 251 251 250 249 253 257
308 311 313 310 305 307 307 305 306 308 306 308 313 321 327 334 341 344 344 338 330 323 321 322 322 319 306 287 275 267 255 250 252 253 255 255 253 253 252 251 252 254 255
306 306 310 309 308 307 304 300 304 308 305 306 311 316 321 327 336 341 341 342 338 329 324 321 323 322 317 301 285 276 269 260 251 249 250 251 253 253 253 253 253 253 253
308 304 304 307 304 305 300 300 301 304 300 302 307 310 313 320 327 334 337 337 339 338 329 323 320 321 321 313 298 284 275 269 261 254 250 249 250 251 253 255 256 257 258
317 313 309 306 303 301 297 296 298 299 295 296 302 306 307 313 319 326 330 333 334 333 336 328 322 318 320 318 310 293 281 275 269 262 256 252 251 251 252 253 254 255 257
Height
5687 5678 5668 5657 5646 5633 5620 5607 5593 5578 5563 5546 5530 5515 5502 5492 5484 5475 5464 5456 5448 5442 5437 5434 5432 5429 5426 5422 5419 5417 5415 5412 5412 5415 5417 5418 5417 5417 5419 5421 5426 5433 5442
5674 5663 5653 5640 5626 5614 5601 5586 5570 5553 5537 5520 5506 5496 5486 5476 5467 5459 5453 5444 5437 5432 5427 5422 5418 5414 5411 5406 5402 5400 5397 5396 5394 5397 5398 5402 5403 5404 5406 5410 5414 5418 5425
5660 5647 5634 5621 5606 5592 5579 5563 5546 5531 5517 5503 5490 5480 5472 5462 5455 5449 5440 5434 5427 5420 5414 5408 5403 5398 5393 5388 5383 5381 5378 5377 5376 5378 5381 5383 5387 5390 5393 5395 5400 5407 5413
5642 5631 5618 5603 5588 5570 5554 5539 5524 5508 5495 5486 5476 5466 5460 5453 5445 5439 5431 5423 5415 5408 5400 5392 5385 5378 5373 5368 5364 5362 5361 5360 5359 5359 5362 5364 5369 5374 5377 5381 5387 5393 5399
5629 5614 5597 5579 5563 5547 5533 5518 5502 5489 5477 5467 5459 5452 5447 5442 5436 5428 5421 5412 5403 5394 5385 5377 5369 5362 5355 5350 5346 5346 5344 5343 5343 5344 5345 5346 5352 5357 5361 5367 5374 5379 5386
5606 5591 5576 5561 5545 5528 5511 5495 5481 5469 5459 5452 5448 5441 5437 5432 5425 5418 5410 5401 5390 5381 5372 5363 5354 5347 5340 5333 5329 5326 5327 5327 5328 5328 5330 5331 5336 5341 5348 5354 5361 5367 5374
5589 5575 5561 5545 5527 5509 5493 5477 5464 5453 5445 5440 5437 5433 5430 5423 5416 5407 5398 5388 5379 5368 5359 5350 5342 5333 5324 5316 5311 5309 5309 5309 5311 5315 5318 5320 5321 5327 5333 5342 5348 5354 5361
5574 5558 5542 5526 5511 5493 5477 5464 5454 5445 5439 5435 5431 5428 5422 5414 5406 5397 5387 5377 5368 5358 5349 5342 5335 5326 5316 5306 5300 5297 5296 5296 5297 5302 5307 5308 5310 5316 5323 5330 5337 5345 5352
5554 5539 5524 5508 5491 5476 5464 5456 5450 5443 5437 5432 5427 5421 5414 5406 5397 5387 5379 5369 5359 5351 5344 5336 5328 5319 5310 5301 5294 5288 5286 5285 5288 5291 5295 5297 5301 5307 5314 5321 5328 5335 5343
5537 5523 5507 5491 5475 5465 5457 5450 5444 5439 5433 5427 5421 5414 5407 5399 5388 5379 5371 5363 5355 5348 5340 5330 5321 5312 5304 5296 5290 5284 5280 5278 5279 5281 5285 5290 5295 5301 5307 5314 5320 5327 5333
5520 5506 5490 5475 5464 5455 5450 5444 5438 5433 5428 5422 5415 5408 5400 5390 5381 5372 5364 5357 5351 5344 5336 5328 5319 5310 5301 5293 5286 5282 5277 5275 5276 5278 5282 5286 5290 5296 5302 5309 5315 5321 5326
5503 5489 5475 5463 5455 5448 5443 5438 5432 5428 5422 5415 5408 5400 5393 5383 5374 5366 5359 5352 5347 5341 5334 5326 5318 5310 5301 5293 5286 5281 5277 5275 5275 5277 5280 5284 5289 5295 5301 5306 5311 5316 5319
5488 5475 5463 5453 5446 5440 5436 5431 5426 5421 5415 5409 5402 5394 5387 5378 5369 5361 5354 5348 5343 5338 5332 5325 5318 5311 5304 5296 5289 5284 5280 5278 5278 5279 5282 5286 5290 5295 5300 5304 5309 5312 5315
5474 5461 5451 5444 5438 5433 5429 5425 5420 5414 5409 5403 5396 5389 5382 5373 5365 5357 5350 5344 5339 5335 5330 5324 5319 5313 5307 5301 5294 5289 5286 5284 5284 5284 5286 5289 5293 5297 5300 5303 5306 5309 5312
5462 5450 5442 5436 5431 5427 5422 5418 5413 5408 5403 5397 5391 5384 5376 5368 5360 5353 5347 5341 5336 5333 5328 5324 5319 5314 5309 5304 5300 5295 5292 5291 5290 5290 5291 5293 5295 5298 5301 5304 5306 5309 5312
5451 5442 5434 5428 5423 5419 5415 5412 5407 5402 5396 5391 5385 5378 5371 5364 5356 5349 5343 5337 5333 5329 5326 5323 5319 5315 5311 5308 5304 5301 5299 5297 5296 5296 5296 5297 5298 5301 5303 5305 5307 5309 5311
5442 5433 5426 5421 5416 5412 5408 5405 5399 5394 5389 5385 5379 5374 5367 5359 5352 5344 5339 5334 5329 5326 5323 5320 5317 5315 5311 5309 5306 5304 5302 5301 5300 5300 5300 5300 5301 5302 5304 5306 5307 5309 5310
5432 5425 5418 5413 5409 5405 5402 5398 5394 5389 5384 5379 5374 5369 5362 5355 5347 5340 5335 5330 5326 5321 5318 5316 5314 5312 5310 5308 5306 5305 5303 5302 5301 5301 5301 5302 5303 5304 5305 5306 5307 5307 5308
5423 5416 5411 5406 5402 5398 5395 5391 5387 5383 5379 5374 5369 5364 5357 5350 5342 5336 5330 5326 5322 5318 5314 5312 5310 5308 5307 5306 5304 5303 5302 5301 5301 5301 5301 5301 5302 5303 5304 5304 5305 5306 5306
5414 5408 5403 5399 5395 5391 5388 5384 5381 5377 5373 5368 5364 5359 5353 5346 5338 5331 5326 5321 5318 5314 5311 5307 5305 5303 5302 5302 5301 5300 5299 5298 5298 5298 5298 5298 5299 5300 5300 5301 5302 5302 5303
5406 5400 5395 5391 5387 5384 5381 5377 5374 5371 5367 5363 5359 5354 5348 5342 5335 5328 5322 5317 5313 5310 5306 5303 5300 5297 5295 5295 5295 5295 5295 5295 5294 5294 5294 5294 5295 5296 5296 5297 5297 5298 5298
5397 5392 5387 5383 5380 5377 5374 5371 5368 5364 5361 5357 5353 5349 5344 5338 5331 5325 5319 5314 5309 5306 5302 5298 5295 5291 5289 5287 5287 5287 5288 5289 5289 5289 5289 5289 5290 5290 5291 5291 5292 5292 5293
5389 5385 5380 5376 5373 5370 5367 5364 5361 5358 5355 5351 5348 5344 5339 5334 5328 5322 5316 5310 5305 5301 5297 5293 5290 5286 5283 5281 5279 5279 5279 5280 5281 5283 5283 5284 5284 5284 5284 5285 5286 5287 5287
5381 5378 5374 5370 5367 5364 5361 5358 5355 5352 5349 5345 5342 5338 5334 5330 5325 5319 5313 5307 5301 5296 5292 5288 5284 5281 5278 5275 5273 5272 5271 5271 5272 5273 5274 5275 5276 5277 5278 5278 5279 5280 5280
5374 5370 5367 5364 5360 5357 5354 5352 5348 5345 5342 5339 5336 5332 5328 5324 5320 5315 5309 5304 5298 5292 5287 5283 5279 5276 5272 5269 5266 5264 5263 5263 5262 5263 5264 5265 5266 5267 5268 5269 5270 5271 5271
5368 5363 5359 5356 5353 5350 5347 5344 5341 5338 5335 5332 5329 5326 5322 5318 5313 5309 5304 5299 5294 5288 5283 5278 5273 5269 5266 5263 5259 5257 5255 5254 5254 5254 5254 5254 5255 5256 5257 5258 5259 5260 5261